EW3533 Weather Reports


time (UTC)temp
F
wind
direction
speed
knots
gust
knots
rain 1hr
in
rain 24hr
in
rain mn
in
humidity
%
barometer
mb
20260502194522 48 328 3.5 8.7 0.00 0.00 0.00 46 1016.7
20260502193020 47 289 1.7 5.2 0.00 0.00 0.00 45 1016.8
20260502191522 47 340 1.7 7.0 0.00 0.00 0.00 44 1016.9
20260502190027 47 355 0.0 7.0 0.00 0.00 0.00 48 1017.1
20260502184615 46 325 2.6 7.8 0.00 0.00 0.00 44 1017.2
20260502183013 46 277 1.7 7.0 0.00 0.00 0.00 46 1017.3
20260502181513 46 267 0.9 7.8 0.00 0.00 0.00 46 1017.3
20260502163103 44 315 4.3 8.7 0.00 0.00 0.00 57 1017.9
20260502161600 44 278 1.7 7.8 0.00 0.00 0.00 56 1018.0
20260502151603 43 321 3.5 9.6 0.00 0.00 0.00 57 1018.1
20260502123025 37 281 1.7 7.0 0.00 0.00 0.00 83 1018.5
20260502121527 36 288 1.7 7.0 0.00 0.00 0.00 84 1018.6
20260502114520 35 284 0.9 7.0 0.00 0.00 0.00 84 1018.5
20260502113019 34 276 0.9 7.0 0.00 0.00 0.00 84 1018.3
20260502111522 34 277 2.6 6.1 0.00 0.00 0.00 85 1018.3
20260502110015 33 279 0.9 4.3 0.00 0.00 0.00 84 1018.2
20260502104513 34 280 1.7 4.3 0.00 0.00 0.00 84 1018.1
20260502103011 34 261 0.9 2.6 0.00 0.00 0.00 84 1017.9
20260502101510 34 261 0.0 1.7 0.00 0.00 0.00 83 1017.9
20260502091502 35 178 0.0 1.7 0.00 0.00 0.00 84 1017.4
20260502080103 36 124 0.0 0.9 0.00 0.00 0.00 88 1017.3
20260502070045 36 119 0.0 0.9 0.00 0.00 0.00 86 1017.4
20260502064545 36 119 0.0 0.0 0.00 0.00 0.00 85 1017.5
20260502063043 37 119 0.0 0.0 0.00 0.00 0.00 85 1017.5
20260502061542 37 119 0.0 1.7 0.00 0.00 0.00 85 1017.6
20260502060040 37 119 0.9 2.6 0.00 0.00 0.00 84 1017.7
20260502054541 37 119 0.9 2.6 0.00 0.00 0.00 84 1017.7
20260502053138 37 119 0.9 2.6 0.00 0.00 0.00 84 1017.7
20260502051546 37 119 0.9 2.6 0.00 0.00 0.00 85 1017.7
20260502050035 37 119 0.0 2.6 0.00 0.00 0.00 85 1017.6
20260502044634 37 118 0.0 3.5 0.00 0.00 0.00 85 1017.5
20260502043033 37 127 2.6 6.1 0.00 0.00 0.00 84 1017.4
20260502041536 37 122 1.7 5.2 0.00 0.00 0.00 84 1017.4
20260502040030 38 122 2.6 7.0 0.00 0.00 0.00 83 1017.3
20260502034531 38 119 1.7 6.1 0.00 0.00 0.00 82 1017.3
20260502033026 38 86 0.9 6.1 0.00 0.00 0.00 81 1017.2
20260502031525 39 80 1.7 5.2 0.00 0.00 0.00 78 1017.1
20260502030025 39 51 1.7 3.5 0.00 0.00 0.00 78 1017.2
20260502024523 39 51 0.0 3.5 0.00 0.00 0.00 78 1017.1
20260502023023 40 67 0.9 3.5 0.00 0.00 0.00 76 1017.1
20260502021520 40 65 2.6 4.3 0.00 0.00 0.00 76 1017.0
20260502020022 40 60 0.0 3.5 0.00 0.00 0.00 75 1016.8
20260502014518 41 51 4.3 7.8 0.00 0.00 0.00 73 1016.6
20260502013015 42 67 4.3 12.2 0.00 0.00 0.00 70 1016.5
20260502011535 43 308 0.0 4.3 0.00 0.00 0.00 59 1016.2
20260502010013 43 306 0.9 4.3 0.00 0.00 0.00 57 1016.1
20260502004511 43 281 1.7 5.2 0.00 0.00 0.00 56 1016.0
20260502003009 43 297 0.9 6.1 0.00 0.00 0.00 57 1015.8
20260502001510 44 283 0.0 4.3 0.00 0.00 0.00 57 1015.8
20260502000010 44 333 3.5 10.4 0.00 0.00 0.00 56 1015.6
20260501234506 44 13 3.5 7.0 0.00 0.00 0.00 57 1015.5
20260501233007 44 329 4.3 8.7 0.00 0.00 0.00 57 1015.5
20260501231505 44 351 4.3 7.8 0.00 0.00 0.00 59 1015.5
20260501230002 44 333 5.2 9.6 0.00 0.00 0.00 60 1015.3
20260501224502 44 5 4.3 13.0 0.00 0.00 0.00 60 1015.4
20260501223125 44 342 5.2 13.0 0.00 0.00 0.00 60 1015.4
20260501223001 44 327 6.1 13.0 0.00 0.00 0.00 59 1015.4
20260501221617 45 336 2.6 8.7 0.00 0.00 0.00 59 1015.1
20260501220057 45 225 4.3 7.0 0.00 0.00 0.00 57 1014.8
20260501214556 46 221 0.9 6.1 0.00 0.00 0.00 58 1014.9
20260501213056 46 263 0.0 2.6 0.00 0.00 0.00 56 1014.8
20260501211558 46 317 0.0 2.6 0.00 0.00 0.00 55 1014.8
20260501210053 45 234 0.0 4.3 0.00 0.00 0.00 57 1014.8
20260501204553 45 261 0.0 3.5 0.00 0.00 0.00 57 1014.8
20260501203053 45 327 0.9 3.5 0.00 0.00 0.00 56 1014.9
20260501201552 45 306 0.9 7.0 0.00 0.00 0.00 55 1014.8
20260501200051 46 25 0.0 7.8 0.00 0.00 0.00 55 1014.8